Weather History for KSEP - October, 2014

Change the Weather History Date:

Wednesday, October 22, 2014

  Actual Average Record
Temperature  
Mean Temperature 66 °F -  
Max Temperature 78 °F 72 °F 90 °F (1979)
Min Temperature 56 °F 50 °F 34 °F (1990)
Cooling Degree Days 2    
Growing Degree Days 16 (Base 50)    
Moisture  
Dew Point 56 °F    
Average Humidity 68    
Maximum Humidity 86    
Minimum Humidity 47    
Precipitation  
Precipitation 0.00 in - - ()
Sea Level Pressure  
Sea Level Pressure 30.13 in    
Wind  
Wind Speed 2 mph (SE)    
Max Wind Speed 9 mph    
Max Gust Speed -    
Visibility 10 miles    
Events      
Averages and records for this station are not official NWS values.
T = Trace of Precipitation, MM = Missing Value Source: NWS Daily Summary

Daily Weather History Graph

Daily Weather History Graph

Search for Another Location

Airport or City:

Trip Planner

Search our weather history database for the weather conditions in past years. The results will help you decide how hot, cold, wet, or windy it might be!

Date:

Astronomy

Oct. 22, 2014 Rise Set
Actual Time 7:41 AM CDT 6:52 PM CDT
Civil Twilight 7:16 AM CDT 7:17 PM CDT
Nautical Twilight 6:48 AM CDT 7:45 PM CDT
Astronomical Twilight 6:19 AM CDT 8:14 PM CDT
Moon 6:28 AM CDT (10/22) 6:16 PM CDT (10/22)
Length of Visible Light 12h 00m
Length of Day
11h 10m
Waning Crescent, 1% of the Moon is Illuminated
Oct 22
Waning Crescent
Oct 23
New
Oct 30
First Quarter
Nov 6
Full
Nov 14
Last Quarter

Hourly Weather History & Observations

Time (CDT) Temp. Dew Point Humidity Pressure Visibility Wind Dir Wind Speed Gust Speed Precip Events Conditions
12:15 AM 59.9 °F 49.6 °F 69% 30.10 in 10.0 mi Calm Calm - N/A   Clear
12:35 AM 61.9 °F 50.7 °F 67% 30.10 in 10.0 mi Calm Calm - N/A   Clear
12:55 AM 62.6 °F 51.8 °F 68% 30.09 in 10.0 mi SE 3.5 mph - N/A   Clear
1:15 AM 62.4 °F 52.2 °F 69% 30.10 in 10.0 mi Calm Calm - N/A   Clear
1:35 AM 61.5 °F 52.0 °F 71% 30.10 in 10.0 mi Calm Calm - N/A   Clear
1:55 AM 60.8 °F 51.8 °F 72% 30.10 in 10.0 mi Calm Calm - N/A   Clear
2:15 AM 60.4 °F 50.9 °F 71% 30.11 in 10.0 mi Calm Calm - N/A   Clear
2:35 AM 59.9 °F 50.7 °F 72% 30.11 in 10.0 mi Calm Calm - N/A   Clear
2:55 AM 56.8 °F 51.4 °F 82% 30.11 in 10.0 mi Calm Calm - N/A   Clear
3:15 AM 57.4 °F 51.4 °F 81% 30.11 in 10.0 mi Calm Calm - N/A   Clear
3:35 AM 57.4 °F 51.6 °F 81% 30.10 in 10.0 mi Calm Calm - N/A   Clear
3:55 AM 58.8 °F 52.0 °F 78% 30.10 in 10.0 mi Calm Calm - N/A   Clear
4:15 AM 59.0 °F 52.0 °F 78% 30.10 in 10.0 mi Calm Calm - N/A   Clear
4:35 AM 59.4 °F 52.9 °F 79% 30.10 in 10.0 mi Calm Calm - N/A   Clear
4:55 AM 58.8 °F 53.4 °F 82% 30.10 in 10.0 mi Calm Calm - N/A   Clear
5:15 AM 60.3 °F 54.9 °F 82% 30.10 in 10.0 mi Calm Calm - N/A   Clear
5:35 AM 60.3 °F 55.0 °F 83% 30.11 in 10.0 mi Calm Calm - N/A   Clear
5:55 AM 59.4 °F 54.5 °F 84% 30.12 in 10.0 mi Calm Calm - N/A   Clear
6:15 AM 59.5 °F 54.3 °F 83% 30.12 in 10.0 mi Calm Calm - N/A   Clear
6:35 AM 59.4 °F 54.5 °F 84% 30.12 in 10.0 mi Calm Calm - N/A   Clear
6:55 AM 59.4 °F 54.1 °F 83% 30.13 in 10.0 mi Calm Calm - N/A   Clear
7:15 AM 59.5 °F 54.3 °F 83% 30.14 in 10.0 mi Calm Calm - N/A   Clear
7:35 AM 57.4 °F 52.7 °F 84% 30.14 in 10.0 mi Calm Calm - N/A   Clear
7:55 AM 57.0 °F 52.9 °F 86% 30.15 in 10.0 mi Calm Calm - N/A   Clear
8:15 AM 57.4 °F 53.2 °F 86% 30.15 in 10.0 mi Calm Calm - N/A   Clear
8:35 AM 59.2 °F 54.5 °F 84% 30.16 in 10.0 mi Calm Calm - N/A   Clear
8:55 AM 59.9 °F 55.0 °F 84% 30.17 in 10.0 mi Calm Calm - N/A   Clear
9:15 AM 60.6 °F 56.3 °F 86% 30.17 in 10.0 mi Calm Calm - N/A   Clear
9:35 AM 62.8 °F 57.9 °F 84% 30.19 in 10.0 mi Calm Calm - N/A   Clear
9:55 AM 64.0 °F 57.9 °F 80% 30.19 in 10.0 mi Calm Calm - N/A   Clear
10:15 AM 65.5 °F 58.5 °F 78% 30.19 in 10.0 mi Calm Calm - N/A   Clear
10:35 AM 66.6 °F 58.1 °F 74% 30.19 in 10.0 mi SSE 4.6 mph - N/A   Clear
10:55 AM 68.0 °F 57.2 °F 68% 30.19 in 10.0 mi SE 5.8 mph - N/A   Clear
11:15 AM 69.3 °F 58.3 °F 68% 30.19 in 10.0 mi SE 5.8 mph - N/A   Clear
11:35 AM 69.8 °F 58.1 °F 66% 30.19 in 10.0 mi SSE 8.1 mph - N/A   Clear
11:55 AM 70.3 °F 58.5 °F 66% 30.19 in 10.0 mi SE 8.1 mph - N/A   Clear
12:15 PM 71.1 °F 59.0 °F 66% 30.19 in 10.0 mi SSE 8.1 mph - N/A   Clear
12:35 PM 71.2 °F 59.2 °F 66% 30.17 in 10.0 mi SE 9.2 mph - N/A   Clear
12:55 PM 73.0 °F 59.7 °F 63% 30.17 in 10.0 mi SE 9.2 mph - N/A   Clear
1:15 PM 73.2 °F 60.1 °F 63% 30.16 in 10.0 mi ESE 8.1 mph - N/A   Clear
1:35 PM 73.9 °F 59.0 °F 59% 30.15 in 10.0 mi SE 8.1 mph - N/A   Clear
1:55 PM 74.3 °F 59.2 °F 59% 30.14 in 10.0 mi SE 4.6 mph - N/A   Scattered Clouds
2:15 PM 75.4 °F 58.1 °F 55% 30.13 in 10.0 mi SSE 8.1 mph - N/A   Scattered Clouds
2:35 PM 76.8 °F 57.4 °F 51% 30.13 in 10.0 mi SSE 5.8 mph - N/A   Scattered Clouds
2:55 PM 77.2 °F 57.4 °F 50% 30.12 in 10.0 mi ESE 6.9 mph - N/A   Scattered Clouds
3:15 PM 77.0 °F 55.4 °F 47% 30.12 in 10.0 mi SSE 6.9 mph - N/A   Scattered Clouds
3:35 PM 76.8 °F 56.1 °F 49% 30.11 in 10.0 mi SE 6.9 mph - N/A   Clear
3:55 PM 77.5 °F 55.9 °F 47% 30.11 in 10.0 mi SSE 8.1 mph - N/A   Clear
4:15 PM 76.1 °F 56.3 °F 50% 30.12 in 10.0 mi SE 4.6 mph - N/A   Clear
4:35 PM 77.2 °F 56.1 °F 48% 30.11 in 10.0 mi SSE 4.6 mph - N/A   Clear
4:55 PM 77.2 °F 56.3 °F 48% 30.11 in 10.0 mi SE 6.9 mph - N/A   Clear
5:15 PM 77.9 °F 56.1 °F 47% 30.11 in 10.0 mi SE 5.8 mph - N/A   Scattered Clouds
5:35 PM 77.4 °F 55.8 °F 47% 30.10 in 10.0 mi SSE 8.1 mph - N/A   Mostly Cloudy
5:55 PM 75.7 °F 56.5 °F 51% 30.11 in 10.0 mi SE 8.1 mph - N/A   Scattered Clouds
6:15 PM 74.3 °F 56.8 °F 54% 30.12 in 10.0 mi SE 3.5 mph - N/A   Clear
6:35 PM 73.4 °F 57.2 °F 57% 30.12 in 10.0 mi ESE 3.5 mph - N/A   Clear
6:55 PM 72.5 °F 57.2 °F 59% 30.12 in 10.0 mi SE 3.5 mph - N/A   Clear
7:15 PM 72.0 °F 57.2 °F 60% 30.12 in 10.0 mi East 3.5 mph - N/A   Clear
7:35 PM 70.9 °F 58.1 °F 64% 30.12 in 10.0 mi East 4.6 mph - N/A   Clear
7:55 PM 70.5 °F 58.1 °F 65% 30.12 in 10.0 mi ESE 4.6 mph - N/A   Clear
8:15 PM 70.9 °F 57.9 °F 63% 30.13 in 10.0 mi ESE 6.9 mph - N/A   Clear
8:35 PM 70.9 °F 57.6 °F 63% 30.13 in 10.0 mi ESE 6.9 mph - N/A   Scattered Clouds
8:55 PM 71.2 °F 57.2 °F 61% 30.14 in 10.0 mi ESE 5.8 mph - N/A   Mostly Cloudy
9:15 PM 70.9 °F 57.4 °F 62% 30.14 in 10.0 mi ESE 5.8 mph - N/A   Mostly Cloudy
9:35 PM 70.7 °F 57.2 °F 62% 30.14 in 10.0 mi ESE 5.8 mph - N/A   Mostly Cloudy
9:55 PM 70.2 °F 57.7 °F 65% 30.14 in 10.0 mi ESE 5.8 mph - N/A   Overcast
10:15 PM 69.4 °F 58.1 °F 67% 30.14 in 10.0 mi Calm Calm - N/A   Overcast
10:35 PM 69.3 °F 58.1 °F 68% 30.15 in 10.0 mi ESE 3.5 mph - N/A   Overcast
10:55 PM 69.4 °F 57.4 °F 65% 30.14 in 10.0 mi ESE 6.9 mph - N/A   Overcast
11:15 PM 68.9 °F 57.4 °F 67% 30.14 in 10.0 mi SE 5.8 mph - N/A   Overcast
11:35 PM 69.1 °F 56.5 °F 64% 30.14 in 10.0 mi SE 5.8 mph - N/A   Scattered Clouds
11:55 PM 68.9 °F 55.6 °F 62% 30.14 in 10.0 mi SE 5.8 mph - N/A   Scattered Clouds